Voltar ao catálogo

STARLINK-31420

AtivoComunicaçõesVLEO
NORAD 59223·PAYLOAD·🇺🇸 United States

Lançado Mar 11, 2024 de Vandenberg Space Force Base

Loading…

Próximas Passagens (próximas 24 horas)

TLE

AtualizadoSource: CelesTrak SupGP

Época: Sep 14, 2026, 21:33 UTC

1 59223C 24046Y   26257.89840278 -.00003410  00000+0 -10076-3 0  2578
2 59223  53.1602 355.9797 0001161  81.7043 339.1289 15.34385847    11

Acompanhe STARLINK-31420 em tempo real com AllMySat

Download on the App Store